CANAVERAL EAST 120NM East of Cape Canaveral (41010)

Conditions for Monday

Daily
Weekly
Monthly
Marine Data Graph

Current Weather/Wave Observations

Air Temperature: 82° F
Humidity: 73
Wind direction (W Dir): NW (305 - 314 Degrees)
Wind Speed (W Spd): 19.4 kts (22.4 mph)
Wind Gust (W Spd): 29.2 kts (33.6 mph)
Atmospheric Pressure (AP): 29.88 in
Pressure Tendency (PT): +0.03 in
Increasing, then steady; or increasing, then increasing more slowly

Updated: 1:00 PM EDT on September 16, 2019

Marine & Boating Location Search

Enter a coastal zip code for marine weather.

Current Wave Detail Observations

Water Depth: 2920 ft
Wave Height: 13.06 ft
Spectral Peak Period: 10.8 sec
Average Wave Period: 7.8 sec
Sampling Interval: 0.6 sec
Wave Record: 2400 sec

Updated: 1:00 PM EDT on September 16, 2019

General Information

Location: 28.903 North -78.464 West
Buoy Type: 3-meter discus buoy
Buoy Hull: 3D26
Payload: ARES payload
Owned by: NDBC
Windspeed: Measured by obtained from anemometer
Sea Surface: Measured by Intake

Weather and Wave Data

Time Temp Humidity Wind Dominant Wave Wind Wave Wave Swell Pressure
  Air
(°F)
Water
(°F)
  Dir Speed
(kts)
Speed
(mph)
Period
(sec)
Height
(ft)
Range
(ft)
Period
(sec)
Height
(ft)
Range
(ft)
Period
(sec)
Height
(ft)
Range
(ft)
Atmo.
(in)
Tend.
(in)
20:00 80 81 82 NW 33.1 38.0 - - - - - - 29.61 +0.10
20:20 81 81 81 NW 29.2 33.6 - - - - - - 29.62 -
20:30 80 81 84 NW 31.1 35.8 - - - - - - 29.63 -
20:40 79 81 87 NW 33.1 38.0 - - - - - - 29.63 -
21:20 80 81 81 NW 31.1 35.8 - - - - - - 29.64 -
21:30 80 81 82 NNW 31.1 35.8 - - - - - - 29.65 -
21:40 79 81 86 NW 29.2 33.6 - - - - - - 29.67 -
21:50 80 81 82 NW 29.2 33.6 10 13.78 exactly 13.8 10 13.12 12.30 - 13.94 - - - 29.67 -
22:20 81 81 79 NW 27.2 31.3 - - - - - - 29.68 -
22:30 81 81 79 NW 27.2 31.3 - - - - - - 29.68 -
22:40 81 81 79 NW 27.2 31.3 - - - - - - 29.69 -
23:10 82 81 76 NW 27.2 31.3 - - - - - - 29.70 -
23:20 82 81 76 NW 27.2 31.3 - - - - - - 29.69 -
23:40 82 81 75 NW 27.2 31.3 - - - - - - 29.70 -
23:50 82 81 75 NW 27.2 31.3 9 15.09 exactly 15.1 9 14.76 13.94 - 15.58 - - - 29.71 -
00:00 81 81 79 NW 25.3 29.1 - - - - - - 29.71 +0.07
00:40 82 81 76 NW 25.3 29.1 - - - - - - 29.71 -
00:50 82 81 75 NW 27.2 31.3 9 13.78 exactly 13.8 9 13.12 12.30 - 13.94 - - - 29.71 -
01:00 82 81 76 WNW 27.2 31.3 - - - - - - 29.72 +0.05
01:10 82 81 76 WNW 27.2 31.3 - - - - - - 29.72 -
01:20 82 81 75 WNW 27.2 31.3 - - - - - - 29.72 -
01:30 82 81 76 WNW 27.2 31.3 - - - - - - 29.72 -
01:40 82 81 75 WNW 27.2 31.3 - - - - - - 29.71 -
01:50 81 81 79 WNW 27.2 31.3 9 13.45 exactly 13.5 9 13.12 12.30 - 13.94 - - - 29.72 -
02:00 80 81 83 NW 29.2 33.6 - - - - - - 29.72 +0.03
02:10 79 81 88 WNW 27.2 31.3 - - - - - - 29.72 -
02:20 79 81 88 NW 29.2 33.6 - - - - - - 29.72 -
02:30 80 81 84 WNW 27.2 31.3 - - - - - - 29.72 -
02:40 80 81 85 WNW 25.3 29.1 - - - - - - 29.71 -
02:50 81 81 79 NW 27.2 31.3 10 14.11 exactly 14.1 10 14.76 13.94 - 15.58 - - - 29.71 -
03:10 80 81 82 NW 25.3 29.1 - - - - - - 29.72 -
03:20 81 81 78 NW 27.2 31.3 - - - - - - 29.73 -
03:30 80 81 83 NW 25.3 29.1 - - - - - - 29.72 -
03:40 80 81 82 NW 23.3 26.8 - - - - - - 29.73 -
03:50 81 81 78 NW 25.3 29.1 10 13.78 exactly 13.8 10 13.12 12.30 - 13.94 - - - 29.73 -
04:20 81 81 79 NW 25.3 29.1 - - - - - - 29.73 -
04:40 81 81 81 NW 25.3 29.1 - - - - - - 29.74 -
04:50 81 81 80 NW 23.3 26.8 10 14.11 exactly 14.1 10 14.76 13.94 - 15.58 - - - 29.75 -
05:10 81 81 80 NW 23.3 26.8 - - - - - - 29.75 -
05:30 81 81 78 NW 23.3 26.8 - - - - - - 29.75 -
06:10 82 81 76 NW 23.3 26.8 - - - - - - 29.77 -
06:20 82 81 74 NW 23.3 26.8 - - - - - - 29.78 -
06:30 82 81 75 NW 23.3 26.8 - - - - - - 29.78 -
06:40 82 81 73 NW 23.3 26.8 - - - - - - 29.78 -
07:00 82 81 72 NW 23.3 26.8 - - - - - - 29.78 +0.06
07:20 82 81 76 NW 21.4 24.6 - - - - - - 29.79 -
07:30 82 81 78 WNW 23.3 26.8 - - - - - - 29.80 -
07:40 82 81 72 NW 21.4 24.6 - - - - - - 29.80 -
07:50 82 81 73 NW 21.4 24.6 10 13.78 exactly 13.8 10 13.12 12.30 - 13.94 24 4.92 4.10 - 5.74 29.81 -
08:10 82 81 78 NW 21.4 24.6 - - - - - - 29.82 -
08:20 82 81 76 NW 21.4 24.6 - - - - - - 29.82 -
08:30 82 81 73 NW 21.4 24.6 - - - - - - 29.82 -
08:40 82 81 73 NW 21.4 24.6 - - - - - - 29.82 -
08:50 82 81 73 NW 21.4 24.6 11 13.45 exactly 13.5 11 13.12 12.30 - 13.94 - - - 29.83 -
09:10 82 81 72 NW 23.3 26.8 - - - - - - 29.84 -
09:20 82 81 73 NW 21.4 24.6 - - - - - - 29.85 -
09:30 82 81 75 WNW 21.4 24.6 - - - - - - 29.85 -
09:40 82 81 76 WNW 21.4 24.6 - - - - - - 29.85 -
09:50 82 81 75 NW 21.4 24.6 11 13.78 exactly 13.8 8 11.48 10.66 - 12.30 11 6.56 5.74 - 7.38 29.85 -
10:20 82 81 72 NW 21.4 24.6 - - - - - - 29.87 -
10:30 82 81 71 NW 21.4 24.6 - - - - - - 29.87 -
10:50 82 81 75 NW 19.4 22.4 11 13.45 exactly 13.5 8 9.84 9.02 - 10.66 11 8.20 7.38 - 9.02 29.88 -
11:10 82 81 72 NW 17.5 20.1 - - - - - - 29.87 -
11:40 82 81 72 NW 21.4 24.6 - - - - - - 29.87 -
11:50 82 81 73 NW 19.4 22.4 10 11.81 exactly 11.8 10 9.84 9.02 - 10.66 11 4.92 4.10 - 5.74 29.87 -
12:00 82 81 74 NW 19.4 22.4 - - - - - - 29.87 +0.03
12:40 82 81 72 NW 19.4 22.4 - - - - - - 29.87 -
12:50 82 81 71 NW 19.4 22.4 11 13.12 exactly 13.1 8 8.20 7.38 - 9.02 11 9.84 9.02 - 10.66 29.87 -

Detailed Wave Spectra

Time Water Depth Wave Height Spectral Peak Period Average Wave Period Sampling Interval Wave Record
21:00 2920 ft 12.99 ft 9.1 sec 6.8 sec 0.6 sec 2400 sec
22:00 2920 ft 13.81 ft 10.0 sec 6.8 sec 0.6 sec 2400 sec
23:00 2920 ft 13.32 ft 9.1 sec 6.8 sec 0.6 sec 2400 sec
03:00 2920 ft 14.01 ft 10.0 sec 7.5 sec 0.6 sec 2400 sec
04:00 2920 ft 13.88 ft 10.0 sec 7.3 sec 0.6 sec 2400 sec
05:00 2920 ft 14.07 ft 10.0 sec 7.6 sec 0.6 sec 2400 sec
08:00 2920 ft 13.81 ft 10.0 sec 7.6 sec 0.6 sec 2400 sec
10:00 2920 ft 13.75 ft 10.8 sec 7.8 sec 0.6 sec 2400 sec
11:00 2920 ft 13.32 ft 10.8 sec 7.5 sec 0.6 sec 2400 sec
13:00 2920 ft 13.06 ft 10.8 sec 7.8 sec 0.6 sec 2400 sec